Погода в Жашкове

Украина / Черкасская область     49°14′48″N   30°06′02″E
темп.,
°C
ветер,
м/с
пор.,
м/с
влажн.,
%
обл.,
%
осадки,
мм/ч
давл.,
гПа
погр.,
м
23 января, сб
сб2323:000ю4118927 0.0 1012243
02:00−1ю499422 0.0 1011190
05:000ююз348963 0.0 101163
08:00−1ю479396 0.0 1011147
11:00+2ю358885 0.0 1012136
14:00+3ююв58898 0.0 1009268
17:00+1ююв47900 0.0 1010115
20:00+1ююв49960 0.0 1009164
24 января, вс
вс2423:00+3ююв61298100 0.0 1007336
02:00+4ююв71498100 0.0 1006463
05:00+4ююв71695100 0.0 1004482
08:00+5ю71695100 0.0 1005562
11:00+5ююв91893100 0.9 1001686
14:00+6ююв101990100 1.8 999859
17:00+5ююв71595100 0.6 1004490
20:00+5ююв61396100 1.4 1003373
25 января, пн
пн2523:00+4ююв51198100 0.8 1003303
02:00+4ю489887 0.0 1003188
05:00+4ююв4898100 0.0 1002193
08:00+1ююв489689 0.0 1004149
11:00+4юв5990100 0.0 1003358
14:00+6ююв81694100 1.7 995638
17:00+7ююв81594100 1.6 993649
20:00+7юв101891100 4.4 992841
26 января, вт
вт2623:00+6ююв71395100 3.4 990594
02:00+1зсз71381100 2.1 1000899
05:00−1зюз6108466 0.0 1003516
08:000ю91489100 0.4 990915
11:00+1зюз101596100 0.8 992729
14:000ююв349597 0.9 1007258
17:00−1зюз121990100 0.5 9991453
20:00−1зсз2596100 0.4 1009277
27 января, ср
ср2723:00−1зюз101786100 0.3 10051123
02:00−1зюз101587100 0.4 10071022
05:00−1с6988100 0.1 1006525
08:00−1зюз8138798 0.1 1010796
11:00−1зюз7108196 0.0 1011873
14:00−1с101696100 10.9 1000981
17:00−1ссз101795100 2.4 1000976
20:00−2зсз5879100 0.1 1013741